Hourly Weather Kandi

Today, 12 August, Wednesday

Time Temperature Precipitation Wind Pressure Humidity
00:00 +24°C° 0 mm 1 mps 738 mmHg 94%
01:00 +23°C° 0 mm 1 mps 738 mmHg 94%
02:00 +23°C° 0 mm 1 mps 738 mmHg 95%
03:00 +23°C° 0 mm 1 mps 738 mmHg 95%
04:00 +23°C° 0 mm 1 mps 738 mmHg 94%
05:00 +23°C° 0 mm 1 mps 738 mmHg 94%
06:00 +23°C° 0 mm 1 mps 739 mmHg 93%
07:00 +24°C° 0 mm 1 mps 739 mmHg 89%
08:00 +25°C° 0 mm 1 mps 739 mmHg 86%
09:00 +26°C° 0 mm 1 mps 739 mmHg 82%
10:00 +28°C° 0 mm 1 mps 739 mmHg 73%
11:00 +30°C° 0 mm 1 mps 739 mmHg 65%
12:00 +32°C° 0 mm 1 mps 739 mmHg 56%
13:00 +32°C° 0 mm 1 mps 738 mmHg 57%
14:00 +32°C° 0 mm 1 mps 738 mmHg 57%
15:00 +32°C° 0 mm 1 mps 737 mmHg 58%
16:00 +31°C° 0.1 mm 1 mps 737 mmHg 64%
17:00 +29°C° 0.1 mm 1 mps 737 mmHg 70%
18:00 +28°C° 0.1 mm 1 mps 737 mmHg 76%
19:00 +25°C° 0 mm 0 mps 737 mmHg 78%
20:00 +25°C° 0 mm 0 mps 738 mmHg 81%
21:00 +24°C° 0 mm 0 mps 738 mmHg 84%
22:00 +24°C° 0 mm 0 mps 738 mmHg 85%
23:00 +23°C° 0 mm 0 mps 738 mmHg 86%

Tomorrow, 13 August, Thursday

Time Temperature Precipitation Wind Pressure Humidity
00:00 +25°C° 0 mm 1 mps 738 mmHg 88%
01:00 +25°C° 0 mm 1 mps 738 mmHg 88%
02:00 +25°C° 0 mm 1 mps 738 mmHg 89%
03:00 +24°C° 0 mm 1 mps 737 mmHg 90%
04:00 +24°C° 0 mm 1 mps 738 mmHg 91%
05:00 +24°C° 0 mm 1 mps 738 mmHg 91%
06:00 +24°C° 0 mm 1 mps 738 mmHg 91%
07:00 +26°C° 0 mm 1 mps 739 mmHg 84%
08:00 +28°C° 0 mm 2 mps 739 mmHg 76%
09:00 +30°C° 0 mm 2 mps 739 mmHg 69%
10:00 +31°C° 0 mm 2 mps 739 mmHg 63%
11:00 +32°C° 0 mm 2 mps 738 mmHg 58%
12:00 +35°C° 0 mm 2 mps 738 mmHg 52%
13:00 +34°C° 0 mm 2 mps 737 mmHg 54%
14:00 +34°C° 0 mm 2 mps 736 mmHg 55%
15:00 +34°C° 0 mm 2 mps 736 mmHg 56%
16:00 +31°C° 0.8 mm 2 mps 736 mmHg 66%
17:00 +30°C° 0.8 mm 2 mps 736 mmHg 75%
18:00 +28°C° 0.8 mm 1 mps 736 mmHg 85%
19:00 +27°C° 0.4 mm 1 mps 736 mmHg 86%
20:00 +27°C° 0.4 mm 1 mps 737 mmHg 88%
21:00 +26°C° 0.4 mm 1 mps 737 mmHg 90%
22:00 +26°C° 0.2 mm 2 mps 737 mmHg 91%
23:00 +26°C° 0.2 mm 2 mps 737 mmHg 92%

Day after tomorrow, 14 August, Friday

Time Temperature Precipitation Wind Pressure Humidity
00:00 +25°C° 0.2 mm 2 mps 736 mmHg 94%
01:00 +25°C° 1.4 mm 2 mps 736 mmHg 94%
02:00 +25°C° 1.4 mm 2 mps 736 mmHg 95%
03:00 +25°C° 1.4 mm 2 mps 736 mmHg 96%
04:00 +24°C° 9.2 mm 2 mps 736 mmHg 96%
05:00 +24°C° 9.2 mm 2 mps 736 mmHg 96%
06:00 +23°C° 9.2 mm 2 mps 736 mmHg 96%
07:00 +24°C° 0 mm 2 mps 736 mmHg 95%
08:00 +24°C° 0 mm 2 mps 736 mmHg 94%
09:00 +24°C° 0 mm 2 mps 737 mmHg 93%
10:00 +26°C° 0 mm 2 mps 737 mmHg 85%
11:00 +28°C° 0 mm 2 mps 736 mmHg 77%
12:00 +29°C° 0 mm 2 mps 736 mmHg 70%
13:00 +30°C° 0 mm 2 mps 736 mmHg 70%
14:00 +30°C° 0 mm 2 mps 735 mmHg 70%
15:00 +30°C° 0 mm 2 mps 734 mmHg 71%
16:00 +29°C° 0.1 mm 2 mps 734 mmHg 76%
17:00 +27°C° 0.1 mm 2 mps 734 mmHg 82%
18:00 +26°C° 0.1 mm 2 mps 734 mmHg 87%
19:00 +25°C° 0.8 mm 2 mps 735 mmHg 90%
20:00 +25°C° 0.8 mm 2 mps 735 mmHg 93%
21:00 +24°C° 0.8 mm 2 mps 736 mmHg 95%
22:00 +24°C° 0.3 mm 2 mps 736 mmHg 96%
23:00 +24°C° 0.3 mm 2 mps 736 mmHg 96%

15 August, Saturday

Time Temperature Precipitation Wind Pressure Humidity
00:00 +24°C° 0.3 mm 2 mps 736 mmHg 96%
01:00 +24°C° 0.2 mm 2 mps 735 mmHg 96%
02:00 +24°C° 0.2 mm 2 mps 735 mmHg 97%
03:00 +24°C° 0.2 mm 2 mps 735 mmHg 97%
04:00 +24°C° 0.1 mm 2 mps 735 mmHg 97%
05:00 +24°C° 0.1 mm 2 mps 735 mmHg 97%
06:00 +23°C° 0.1 mm 2 mps 735 mmHg 96%
07:00 +25°C° 0 mm 2 mps 736 mmHg 92%
08:00 +26°C° 0 mm 3 mps 736 mmHg 87%
09:00 +28°C° 0 mm 3 mps 737 mmHg 82%
10:00 +29°C° 0.1 mm 3 mps 737 mmHg 78%
11:00 +30°C° 0.1 mm 3 mps 736 mmHg 73%
12:00 +31°C° 0.1 mm 2 mps 736 mmHg 68%
13:00 +31°C° 1.2 mm 2 mps 736 mmHg 71%
14:00 +30°C° 1.2 mm 2 mps 735 mmHg 74%
15:00 +30°C° 1.2 mm 2 mps 735 mmHg 78%
16:00 +29°C° 1.6 mm 2 mps 735 mmHg 82%
17:00 +28°C° 1.6 mm 2 mps 735 mmHg 86%
18:00 +26°C° 1.6 mm 2 mps 735 mmHg 91%
19:00 +26°C° 0.1 mm 2 mps 735 mmHg 92%
20:00 +25°C° 0.1 mm 2 mps 736 mmHg 93%
21:00 +25°C° 0.1 mm 2 mps 736 mmHg 94%
22:00 +24°C° 0 mm 2 mps 736 mmHg 94%
23:00 +24°C° 0 mm 2 mps 736 mmHg 94%

16 August, Sunday

Time Temperature Precipitation Wind Pressure Humidity
00:00 +24°C° 0 mm 2 mps 737 mmHg 95%
01:00 +23°C° 0 mm 2 mps 736 mmHg 95%
02:00 +23°C° 0 mm 2 mps 736 mmHg 95%
03:00 +23°C° 0 mm 2 mps 736 mmHg 96%
04:00 +23°C° 0 mm 1 mps 736 mmHg 96%
05:00 +22°C° 0 mm 1 mps 736 mmHg 96%
06:00 +22°C° 0 mm 1 mps 737 mmHg 97%
07:00 +24°C° 0 mm 2 mps 737 mmHg 90%
08:00 +25°C° 0 mm 3 mps 737 mmHg 84%
09:00 +27°C° 0 mm 3 mps 738 mmHg 78%
10:00 +28°C° 0 mm 3 mps 737 mmHg 74%
11:00 +29°C° 0 mm 3 mps 737 mmHg 70%
12:00 +31°C° 0 mm 3 mps 736 mmHg 66%
13:00 +31°C° 0 mm 3 mps 736 mmHg 66%
14:00 +31°C° 0 mm 3 mps 735 mmHg 65%
15:00 +31°C° 0 mm 3 mps 734 mmHg 65%
16:00 +30°C° 0 mm 2 mps 735 mmHg 71%
17:00 +29°C° 0 mm 2 mps 735 mmHg 76%
18:00 +28°C° 0 mm 1 mps 735 mmHg 81%
19:00 +27°C° 0 mm 1 mps 735 mmHg 81%
20:00 +27°C° 0 mm 1 mps 736 mmHg 82%
21:00 +27°C° 0 mm 1 mps 736 mmHg 82%
22:00 +27°C° 0 mm 2 mps 736 mmHg 82%
23:00 +26°C° 0 mm 2 mps 736 mmHg 82%

17 August, Monday

Time Temperature Precipitation Wind Pressure Humidity
00:00 +26°C° 0 mm 2 mps 736 mmHg 82%
01:00 +26°C° 0 mm 2 mps 736 mmHg 83%
02:00 +26°C° 0 mm 2 mps 736 mmHg 84%
03:00 +26°C° 0 mm 2 mps 736 mmHg 85%
04:00 +25°C° 0 mm 2 mps 736 mmHg 87%
05:00 +25°C° 0 mm 2 mps 736 mmHg 90%
06:00 +25°C° 0 mm 2 mps 736 mmHg 92%
07:00 +26°C° 0 mm 2 mps 736 mmHg 86%
08:00 +28°C° 0 mm 3 mps 737 mmHg 79%
09:00 +29°C° 0 mm 3 mps 737 mmHg 72%
10:00 +30°C° 0 mm 3 mps 737 mmHg 68%
11:00 +33°C° 0 mm 3 mps 736 mmHg 64%
12:00 +34°C° 0 mm 3 mps 736 mmHg 60%
13:00 +34°C° 0 mm 2 mps 735 mmHg 59%
14:00 +34°C° 0 mm 2 mps 735 mmHg 58%
15:00 +35°C° 0 mm 2 mps 734 mmHg 57%
16:00 +32°C° 0 mm 1 mps 734 mmHg 63%
17:00 +31°C° 0 mm 1 mps 734 mmHg 69%
18:00 +29°C° 0 mm 1 mps 734 mmHg 75%
19:00 +29°C° 0.8 mm 1 mps 735 mmHg 78%
20:00 +28°C° 0.8 mm 1 mps 735 mmHg 82%
21:00 +27°C° 0.8 mm 1 mps 736 mmHg 85%
22:00 +27°C° 0.4 mm 1 mps 736 mmHg 88%
23:00 +26°C° 0.4 mm 1 mps 736 mmHg 90%
Show more